Regional Weather Roundup
Issued by NWS

Home | Current Version | Previous Version | Graphics & Text | Print | Product List | Glossary Off
Versions: 1 2 3 4 5 6 7 8 9 10 11 12 13 14 15 16 17 18 19 20 21 22 23 24 25 26 27 28 29 30 31 32 33 34 35 36 37 38 39 40 41 42 43 44 45 46 47 48 49 50

000
ASUS43 KMKX 262121
RWRWI

WISCONSIN REGIONAL WEATHER ROUNDUP
NATIONAL WEATHER SERVICE MILWAUKEE/SULLIVAN WI
400 PM CDT SAT MAY 26 2018

NOTE: "FAIR" INDICATES FEW OR NO CLOUDS BELOW 12,000 FEET WITH NO
SIGNIFICANT WEATHER AND/OR OBSTRUCTIONS TO VISIBILITY.

WIZ001-002-006>008-014>016-023>028-262200-
NORTHWEST WISCONSIN

CITY           SKY/WX    TMP DP  RH WIND       PRES   REMARKS
SUPERIOR ARPT  PTSUNNY   68  53  58 NE7       29.64S
ASHLAND        FAIR      75  60  59 N3        29.65F
HAYWARD        FAIR      91  51  25 W10G25    29.68F HX  88
SIREN          FAIR      93  47  20 W17       29.68F HX  89
CUMBERLAND     FAIR      86  52  30 W8        29.70F HX  84
RICE LAKE      FAIR      92  51  24 W10G18    29.71S HX  89
CHETEK         FAIR      91  56  30 W10       29.70F HX  89
LADYSMITH      FAIR      90  55  30 W9G17     29.71F HX  88
EAU CLAIRE     FAIR      92  58  31 W13       29.68F HX  91
MENOMONIE      FAIR      89  56  32 W7        29.69F HX  87
NEW RICHMOND   FAIR      91  48  23 CALM      29.70F HX  87
OSCEOLA        FAIR      91  52  26 SW12      29.71F HX  89
$$

WIZ003>005-009-010-017-018-262200-
NORTH CENTRAL WISCONSIN

CITY           SKY/WX    TMP DP  RH WIND       PRES   REMARKS
MANITOWISH WTR FAIR      88  54  30 SW18G24   29.69S HX  86
ARBOR VITAE    FAIR      92  53  26 W12G21    29.69F HX  90
WOODRUFF       FAIR      92  53  26 W12G21    29.69F HX  90
RHINELANDER    PTSUNNY   91  55  29 W14G21    29.70F HX  89
EAGLE RIVER    FAIR      88  47  24 W9        29.68S HX  85
LAND O LAKES   FAIR      90  46  22 W9G18     29.70S HX  86
PHILLIPS       FAIR      86  59  39 W7        29.69F HX  85
TOMAHAWK       FAIR      89  50  25 W9G18     29.71S HX  86
MEDFORD        FAIR      88  56  33 W10       29.72F HX  87
MERRILL        FAIR      91  60  34 W15       29.70F HX  90
$$

WIZ029-030-035-036-043>047-262200-
CENTRAL WISCONSIN

CITY           SKY/WX    TMP DP  RH WIND       PRES   REMARKS
WAUSAU         NOT AVBL
MOSINEE        MOSUNNY   90  57  33 W14       29.73F HX  88
MARSHFIELD     FAIR      91  57  31 W12       29.71F HX  89
STEVENS POINT  FAIR      89  58  35 SW10G20   29.72F HX  88
WAUPACA        FAIR      93  54  26 S10G18    29.71S HX  91
WAUTOMA        NOT AVBL
WISC RAPIDS    FAIR      93  57  29 SW12G21   29.72F HX  91
CAMP DOUGLAS   FAIR      89  63  41 SW7G17    29.72F HX  90
$$

WIZ011>013-019>022-031-037>040-048>050-262200-
NORTHEAST WISCONSIN

CITY           SKY/WX    TMP DP  RH WIND       PRES   REMARKS
ANTIGO         FAIR      88  58  36 SW16      29.72F HX  87
SHAWANO        FAIR      92  56  29 SW7       29.68F HX  90
OCONTO         FAIR      88  62  41 S13       29.68S HX  88
STURGEON BAY   FAIR      78  63  59 S9        29.72S HX  80
GREEN BAY      FAIR      90  60  36 SW8       29.69F HX  89
MANITOWOC      NOT AVBL
APPLETON       MOSUNNY   88  54  31 SW9       29.71  HX  86
CLINTONVILLE   FAIR      92  54  27 SW14G21   29.69F HX  90
OSHKOSH        FAIR      88  58  36 SW8       29.71F HX  87
$$

WIZ032>034-041-042-053>061-262200-
SOUTHWEST WISCONSIN

CITY           SKY/WX    TMP DP  RH WIND       PRES   REMARKS
LA CROSSE      FAIR      91  68  46 S8        29.71F HX  95
SPARTA         FAIR      91  58  32 W7        29.73S HX  89
VIROQUA        FAIR      90  62  40 SW10      29.76F HX  90
BOSCOBEL       FAIR      91  66  43 SW6       29.73F HX  93
PRAIRIE DU CHI FAIR      89  62  40 S5        29.73F HX  89
PLATTEVILLE    FAIR      87  65  48 SW5       29.77F HX  88
$$

WIZ056-057-062-063-064-067-068-262200-
SOUTH CENTRAL WISCONSIN

CITY           SKY/WX    TMP DP  RH WIND       PRES   REMARKS
REEDSBURG      FAIR      89  65  45 SW10      29.74S HX  90
BARABOO/DELLS  FAIR      90  55  30 SW8       29.74F HX  88
LONE ROCK      FAIR      90  67  46 W7        29.73F HX  93
MINERAL POINT  FAIR      90  59  35 SW7       29.77F HX  89
MADISON        FAIR      88  59  37 SW6       29.73F HX  87
MIDDLETON      FAIR      91  58  33 W6        29.75F HX  90
WATERTOWN      FAIR      87  62  43 W5        29.74F HX  88
MONROE         FAIR      88  54  31 W8        29.77S HX  86
JANESVILLE     SUNNY     90  57  33 W6        29.75F HX  88
$$

WIZ051-052-058>065-066-070>072-262200-
SOUTHEAST WISCONSIN

CITY           SKY/WX    TMP DP  RH WIND       PRES   REMARKS
MILWAUKEE      FAIR      83  63  50 SE13      29.74F HX  84
WAUKESHA       SUNNY     86  59  39 W6        29.76F HX  85
MILWAUKEE/TIMM MOSUNNY   88  54  31 E10       29.75F HX  86
RACINE         FAIR      82  61  48 S8        29.77F HX  83
BURLINGTON     FAIR      89  60  37 W7        29.75F HX  88
KENOSHA        FAIR      84  62  47 E13       29.75F HX  85
FOND DU LAC    FAIR      89  60  37 SW8       29.72F HX  89
SHEBOYGAN      FAIR      81  63  54 S14       29.73F HX  82
WEST BEND      FAIR      86  55  35 W9        29.74F HX  84
JUNEAU         FAIR      87  60  40 SW7       29.75F HX  86
$$

LSZ147-162-262200-
LAKE SUPERIOR

STATION/POSITION TIME  TEMP    WIND        PRES    WAVE
                       AIR SEA DIR/SP/G            HT/PER
                 (UTC) (F)     (DEG/KT/KT) (MB)    (FT/S)
W MID LAKE BUOY  2050   39 36   10/  8/ 10 1005.6R   1
DEVILS ISLAND    2100   52     120/  8/  9 1004.3F
SAXON HARBOR     2030   59      40/  2/  3 1003.7F
$$

LMZ867-665-643>646-262200-
LAKE MICHIGAN

STATION/POSITION TIME  TEMP    WIND        PRES    WAVE
                       AIR SEA DIR/SP/G            HT/PER
                 (UTC) (F)     (DEG/KT/KT) (MB)    (FT/S)
N MID LAKE BUOY  2100   41 38   60/  4/  4 1006.7
NORTHPORT PIER   2040   65     160/  6/  8 1006.4S
KEWAUNEE LAKESHO 2054          170/  8/ 10 1006.1F
SHEBOYGAN LAKESH 2100   67     180/ 19/ 19 1006.4F
PORT WASHINGTON  2030   70     190/  6/ 10 1008.5S
ATWATER BUOY     2037   59 54  160/  8/ 10 1007.8F   1
MILWAUKEE LAKESH 2100   59     140/  7/  8   N/A
S MID LAKE BUOY  2050   50 40  180/  6/  6 1008.2F   0
KENOSHA   LAKESH 2100   68                 1007.5
$$

TC  - TEMPERATURE IN CELSIUS
VSB - VISIBILITY IN STATUTE MILES
WCI - WIND CHILL INDEX
HX  - HEAT INDEX





USA.gov is the U.S. government's official web portal to all federal, state and local government web resources and services.